Regional Weather Roundup
Issued by NWS Burlington, VT

Home | Current Version | Previous Version | Text Only | Print | Product List | Glossary On
Versions: 1 2 3 4 5 6 7 8 9 10 11 12 13 14 15 16 17 18 19 20 21 22 23 24 25 26 27 28 29 30 31 32 33 34 35 36 37 38 39 40 41 42 43 44 45 46 47 48 49 50
000
ASUS41 KBTV 080410
RWRBTV
VERMONT REGIONAL WEATHER ROUNDUP
NATIONAL WEATHER SERVICE BURLINGTON VT
1100 PM EST SUN FEB 07 2016

NOTE: "FAIR" INDICATES FEW OR NO CLOUDS BELOW 12,000 FEET WITH NO
SIGNIFICANT WEATHER AND/OR OBSTRUCTIONS TO VISIBILITY.

* THESE REPORTS ARE NOT UNDER NWS QUALITY CONTROL AND/OR DO NOT
  REPORT WEATHER SUCH AS PRECIPITATION AND FOG.

VTZ001>019-080500-
_____VERMONT_____


CITY           SKY/WX    TMP DP  RH WIND       PRES   REMARKS
BURLINGTON     FAIR      20  10  65 NW7       30.10F WCI  11
MONTPELIER     FAIR      24  19  81 CALM      30.10F
MORRISVILLE    FAIR      25  15  66 N5        30.10F WCI  19
ST. JOHNSBURY*   N/A     25  19  78 MISG      30.08F
LYNDONVILLE*   FAIR      22  18  84 CALM      30.08F
RUTLAND*       FAIR      25  19  80 N5        30.04F WCI  19
SPRINGFIELD    FAIR      25  22  88 CALM      30.07F
HIGHGATE*      MOCLDY    18   9  67 CALM      30.11F
NEWPORT*       FAIR      19   8  62 N7        30.10F WCI   9
BENNINGTON     FAIR      35  21  56 E10       29.99F WCI  27
SUTTON*          N/A     21 N/A N/A MISG        N/A

_____LAKE CHAMPLAIN_____


CITY           SKY/WX    TMP DP  RH WIND       PRES   REMARKS

$$

NYZ007-026>031-035-052-083-080500-
_____NORTHERN NEW YORK_____


CITY           SKY/WX    TMP DP  RH WIND       PRES   REMARKS
PLATTSBURGH    CLOUDY    17   5  59 N5        30.12F WCI  10
SARANAC LAKE   CLOUDY    18  15  88 NE6       29.95F WCI  10
MASSENA        CLOUDY    17   4  56 NE21      30.08F WCI   0
OGDENSBURG*    CLEAR     19  10  68 NE9       30.02F WCI   9
POTSDAM*       MOCLDY    19  10  68 E8        30.02F WCI   9
WATERTOWN      CLOUDY    27  22  81 NE8       29.96F WCI  19
ALBANY         CLOUDY    30  22  72 N3        30.02F
GLENS FALLS    CLOUDY    26  19  74 NE5       30.04F WCI  20

$$
NHZ002-005-011-080500-
_____NEW HAMPSHIRE_____


CITY           SKY/WX    TMP DP  RH WIND       PRES   REMARKS
LEBANON        CLOUDY    25  21  85 CALM      30.07F
MT WASHINGTON  MOCLDY    14   7  73 SE10        N/A  WCI   1
PLYMOUTH       FAIR      24  22  96 CALM      30.09F
WHITEFIELD     CLOUDY    29  18  63 E8        30.08S WCI  21

$$

_____REGIONAL QUEBEC LOCATIONS_____


CITY           SKY/WX    TMP DP  RH WIND       PRES   REMARKS
MONTREAL       CLOUDY    18   3  53 NE17      30.14F WCI   2
QUEBEC CITY    CLOUDY    16   3  57 E6        30.24S WCI   7
SHERBROOKE     MOCLDY    14   1  57 NE9       30.13F WCI   2

_____REGIONAL ONTARIO LOCATIONS_____


CITY           SKY/WX    TMP DP  RH WIND       PRES   REMARKS
OTTAWA         MOCLDY    16   0  48 E14       30.07S WCI   1

______KEY______
VSB  - VISIBILITY IN MILES
WCI  - WIND CHILL INDEX
HX   - HEAT INDEX
$$
NNNN



USA.gov is the U.S. government's official web portal to all federal, state and local government web resources and services.